Regional Weather Roundup
Issued by NWS

Home | Current Version | Previous Version | Text Only | Print | Product List | Glossary Off
Versions: 1 2 3 4 5 6 7 8 9 10 11 12 13 14 15 16 17 18 19 20 21 22 23 24 25 26 27 28 29 30 31 32 33 34 35 36 37 38 39 40 41 42 43 44 45 46 47 48 49 50

490
ASUS43 KLMK 210502
RWRKY
KENTUCKY REGIONAL WEATHER ROUNDUP
NATIONAL WEATHER SERVICE LOUISVILLE KY
1200 AM EST WED FEB 21 2018

NOTE "FAIR" INDICATES FEW OR NO CLOUDS BELOW 12,000 FEET
WITH NO SIGNIFICANT WEATHER AND/OR OBSTRUCTIONS TO VISIBILITY.

KYZ001>023-026-027-061>063-070>075-210600-
WESTERN AND SOUTH CENTRAL KENTUCKY

CITY           SKY/WX    TMP DP  RH WIND       PRES   REMARKS
PADUCAH        FAIR      72  60  66 S15G28    30.02F
HENDERSON      FAIR      70  60  70 S18G28    30.03F
OWENSBORO      FAIR      69  60  73 S17       30.06F
HOPKINSVILLE   FAIR      72  59  64 S10G18    30.11S
BOWLING GREEN  FAIR      72  61  68 S21G32    30.15S
GLASGOW        NOT AVBL
$$

KYZ024-025-028>034-038-045-046-053-210600-
NORTH CENTRAL KENTUCKY

CITY           SKY/WX    TMP DP  RH WIND       PRES   REMARKS
LOUISVILLE/SDF MOCLDY    72  59  63 S24       30.11S
LOUISVILLE/LOU FAIR      72  60  66 S16G32    30.11F
FORT KNOX      FAIR      68  58  72 S14G23    30.13S
$$

KYZ035>037-039>044-047>052-055>060-089>105-210600-
NORTHEAST KENTUCKY

CITY           SKY/WX    TMP DP  RH WIND       PRES   REMARKS
LEXINGTON      FAIR      69  57  65 S13       30.18F
COVINGTON      MOCLDY    67  59  75 S15       30.12F
FRANKFORT      FAIR      68  56  65 S10       30.15F
$$

KYZ054-064>069-076>088-106>120-210600-
SOUTHEAST KENTUCKY

CITY           SKY/WX    TMP DP  RH WIND       PRES   REMARKS
JACKSON        FAIR      68  52  56 SW6       30.26S
LONDON         MOCLDY    69  56  62 S12G21    30.26S
SOMERSET       NOT AVBL
MIDDLESBORO    CLOUDY    64  55  72 CALM      30.31S
MONTICELLO     NOT AVBL
$$





USA.gov is the U.S. government's official web portal to all federal, state and local government web resources and services.